Location: *
(51.8167°N, 12.5000°E)
Time: 12:05:31
(UTC+00:00)

Mayak - Pass Details

Date: 16 September 2019
Orbit: 581 x 602 km, 97.6° (Epoch: 16 October)

Event Time Altitude Azimuth Distance (km) Brightness Sun altitude
Rises 21:25:47 0° 18° (NNE) 2,818 2.8 -31.8°
Reaches altitude 10° 21:28:03 10° 26° (NNE) 1,912 1.7 -32.0°
Enters shadow 21:28:24 12° 28° (NNE) 1,778 1.5 -32.0°
